MPEC 2020-V111 : 2020 VE3
The following Minor Planet Electronic Circular may be linked-to from your own Web pages, but must not otherwise be redistributed electronically.A form allowing access to any MPEC is at the bottom of this page.


M.P.E.C. 2020-V111 Issued 2020 November 12, 23:28 UT The Minor Planet Electronic Circulars contain information on unusual minor planets and routine data on comets. They are published on behalf of Division F of the International Astronomical Union by the Minor Planet Center, Smithsonian Astrophysical Observatory, Cambridge, MA 02138, U.S.A. Prepared using the Tamkin Foundation Computer Network MPC@CFA.HARVARD.EDU URL https://www.minorplanetcenter.net/ ISSN 1523-6714 2020 VE3 Observations: K20V03E C2020 10 23.50493102 59 00.939+16 14 51.82 22.72GVEV111F52 K20V03E C2020 10 23.51580402 59 01.296+16 14 57.90 21.29GVEV111F52 K20V03E C2020 10 23.52674502 59 01.662+16 15 04.79 21.97GVEV111F52 K20V03E C2020 10 23.53764002 59 02.004+16 15 11.40 22.52GVEV111F52 K20V03E C2020 11 08.51468103 08 48.118+19 12 31.87 21.77GVEV111F51 K20V03E C2020 11 08.52761703 08 48.442+19 12 41.34 20.79GVEV111F51 K20V03E C2020 11 08.54057103 08 48.743+19 12 49.36 21.56GVEV111F51 K20V03E C2020 11 08.55349403 08 49.057+19 12 57.84 21.91GVEV111F51 K20V03E* C2020 11 11.27637803 10 22.67 +19 45 07.6 21.45GVEV111G96 K20V03E C2020 11 11.28149803 10 22.76 +19 45 10.9 22.12GVEV111G96 K20V03E C2020 11 11.28661703 10 22.92 +19 45 15.0 21.10GVEV111G96 K20V03E C2020 11 11.36574903 10 24.77 +19 46 10.6 21.19GVEV111G96 K20V03E C2020 11 11.37081703 10 24.88 +19 46 13.9 21.73GVEV111G96 K20V03E C2020 11 11.37588003 10 25.03 +19 46 17.3 20.99GVEV111G96 K20V03E KC2020 11 12.17581803 10 54.32 +19 55 47.9 21.94GVEV111I52 K20V03E KC2020 11 12.18086103 10 54.42 +19 55 51.5 21.06GVEV111I52 K20V03E KC2020 11 12.18590503 10 54.62 +19 55 55.1 20.80GVEV111I52 K20V03E KC2020 11 12.32186 03 10 57.88 +19 57 34.7 21.5 RoEV111691 K20V03E KC2020 11 12.33419 03 10 58.15 +19 57 43.4 21.5 RoEV111691 K20V03E KC2020 11 12.34650 03 10 58.45 +19 57 52.4 21.1 RoEV111691 K20V03E 1C2020 11 12.91908 03 11 18.97 +20 04 32.9 21.6 VVEV111033 K20V03E 1C2020 11 12.92267 03 11 19.07 +20 04 35.5 22.0 VVEV111033 K20V03E 1C2020 11 12.92625 03 11 19.16 +20 04 37.9 21.9 VVEV111033 K20V03E 1C2020 11 12.93003 03 11 19.24 +20 04 40.8 21.8 VVEV111033 Observer details: 033 Karl Schwarzschild Observatory, Tautenburg. Observers S. Melnikov, F. Ludwig, B. Stecklum. Measurer B. Stecklum. 1.34-m f/3 Schmidt + CCD. 691 Steward Observatory, Kitt Peak-Spacewatch. Observer J. V. Scotti. 0.9-m f/3 reflector + CCD. F51 Pan-STARRS 1, Haleakala. Observers J. Bulger, K. Chambers, T. Lowe, A. Schultz, M. Willman. Measurers S. Chastel, M. Huber, Y. Ramanjooloo, R. Wainscoat, R. Weryk. 1.8-m Ritchey-Chretien + CCD. F52 Pan-STARRS 2, Haleakala. Observers J. Bulger, K. Chambers, T. Dukes, T. Lowe, A. Schultz, M. Willman. Measurers S. Chastel, M. Huber, Y. Ramanjooloo, R. Wainscoat, R. Weryk. 1.8-m Ritchey-Chretien + CCD. G96 Mt. Lemmon Survey. Observer K. W. Wierzchos. Measurers E. J. Christensen, G. A. Farneth, D. C. Fuls, A. R. Gibbs, A. D. Grauer, H. Groeller, R. A. Kowalski, S. M. Larson, G. J. Leonard, T. A. Pruyne, D. Rankin, R. L. Seaman, F. C. Shelly, K. W. Wierzchos. 1.5-m reflector + 10K CCD. I52 Steward Observatory, Mt. Lemmon Station. Observer E. J. Christensen. Measurers E. J. Christensen, G. A. Farneth, D. C. Fuls, A. R. Gibbs, A. D. Grauer, H. Groeller, R. A. Kowalski, S. M. Larson, G. J. Leonard, T. A. Pruyne, D. Rankin, R. L. Seaman, F. C. Shelly, K. W. Wierzchos. 1.0-m reflector + CCD. Orbital elements: 2020 VE3 Earth MOID = 0.2935 AU Epoch 2020 Dec. 17.0 TT = JDT 2459200.5 Veres M 3.84327 (2000.0) P Q n 0.24455614 Peri. 26.94037 +0.40822761 -0.91246253 a 2.5325052 Node 38.98332 +0.82944279 +0.35811322 e 0.4947184 Incl. 2.51549 +0.38128059 +0.19790665 P 4.03 H 23.4 G 0.15 U 6 Residuals in seconds of arc 201023 F52 0.1- 0.2+ 201111 G96 0.1+ 0.1+ 201112 I52 0.7+ 0.1- 201023 F52 0.0 0.3- 201111 G96 0.3- 0.3- 201112 691 0.0 0.2+ 201023 F52 0.2+ 0.0 201111 G96 0.3+ 0.1+ 201112 691 0.2- 0.2+ 201023 F52 0.1- 0.1+ 201111 G96 0.1+ 0.1- 201112 691 0.1- 0.6+ 201108 F51 0.1- 0.1- 201111 G96 0.0 0.3- 201112 033 0.1- 0.1- 201108 F51 0.2+ 0.6+ 201111 G96 0.3+ 0.3- 201112 033 0.0 0.1- 201108 F51 0.0 0.1- 201112 I52 0.2+ 0.3+ 201112 033 0.1- 0.3- 201108 F51 0.1- 0.3- 201112 I52 0.2- 0.1+ 201112 033 0.4- 0.1- Ephemeris: 2020 VE3 a,e,i = 2.53, 0.49, 3 q = 1.2796 Date TT R. A. (2000) Decl. Delta r Elong. Phase V 2020 10 13 02 50 43.7 +14 32 28 0.4106 1.3812 155.2 17.7 23.1 ... 2020 10 28 03 02 01.6 +17 02 13 0.3436 1.3304 166.8 9.8 22.3 ... 2020 11 05 03 06 49.8 +18 31 36 0.3201 1.3099 173.2 5.1 21.9 ... 2020 11 11 03 10 13.0 +19 41 56 0.3080 1.2978 177.4 2.0 21.6 2020 11 12 03 10 47.1 +19 53 50 0.3064 1.2961 177.8 1.7 21.6 2020 11 13 03 11 21.4 +20 05 45 0.3050 1.2944 177.8 1.7 21.6 ... 2020 11 19 03 15 00.6 +21 17 34 0.2992 1.2863 174.3 4.4 21.7 ... 2020 11 27 03 20 56.8 +22 51 59 0.2987 1.2804 168.1 9.2 21.9 ... 2020 12 12 03 37 11.5 +25 30 27 0.3192 1.2847 157.1 17.3 22.4 M. P. C. Staff (C) Copyright 2020 MPC M.P.E.C. 2020-V111


Enter an MPEC number in one of the following forms:
- 1997-B01 (the full form)
- J97B01 (the packed version of the full form)
- B01 (the abbreviated form)